sat.trackr.live / text

‹ back to catalog

HULIANWANG DIGUI-171

NORAD 69574 · 2026-137C

PAYLOAD ACTIVE UNKNOWN

§ Identity

Operator
Country
PRC
Launch date
2026-06-17
Launch site
WSC
Launch vehicle
Mass (kg)
RCS (m²)

External: N2YO · Heavens-Above · Gunter

§ Orbital elements

Epoch: 2026-09-20T00:34:39.336096Z

Period
108.33 min
Inclination
49.9960°
Eccentricity
0.0000541
Mean motion
13.29328957 rev/d
Perigee alt
1,148.9 km
Apogee alt
1,149.7 km
Semi-major
7,527.4 km
B*
1.1041e-4
RAAN
255.8184°
Arg perigee
162.1907°
Mean anomaly
197.8984°
Rev number
1,294

§ Raw data

HULIANWANG DIGUI-1711 69574U 26137C   26263.02406639 -.00000073  00000+0  11041-3 0  99992 69574  49.9960 255.8184 0000541 162.1907 197.8984 13.29328957 12940

JSON: /api/v1/satellites/69574 · /tle

For live sub-satellite position, see the globe view (requires WebGL).

§ Visibility from observer

Set your observer location to see the next 7 days of passes ≥ 10°. The values pass through the URL so the page stays shareable.

No JS? Fill the form by hand. The geolocation button needs JavaScript.